TAP1923 LPPR-LPPT

Flight info

Callsign TAP1923
Flight time 0h 37m
Altitude 23000
Route MANIK DCT ABRIL DCT XAMAX
Aircraft A20N/M-SDE2E3FGHIRWXY/LB1

Departure

Time 2026-05-06 17:55
Airport Francisco de Sá Carneiro Airport (LPPR)

Arrival

Time 2026-05-06 18:33
Airport Lisbon Humberto Delgado Airport (LPPT)
Time Latitude Longitude Altitude Speed Heading
2026-05-06 17:43 41.23684 -8.67551 238 ft 0 kts 259°
2026-05-06 17:48 41.23684 -8.67549 238 ft 1 kts 259°
2026-05-06 17:49 41.23687 -8.67528 240 ft 3 kts 259°
2026-05-06 17:49 41.23691 -8.67502 242 ft 3 kts 258°
2026-05-06 17:49 41.23696 -8.67477 236 ft 3 kts 250°
2026-05-06 17:49 41.23705 -8.67456 236 ft 3 kts 207°
2026-05-06 17:50 41.23723 -8.67450 236 ft 3 kts 173°
2026-05-06 17:50 41.23730 -8.67451 236 ft 1 kts 168°
2026-05-06 17:52 41.23727 -8.67450 236 ft 2 kts 168°
2026-05-06 17:52 41.23693 -8.67441 236 ft 9 kts 169°
2026-05-06 17:52 41.23637 -8.67466 236 ft 11 kts 234°
2026-05-06 17:52 41.23615 -8.67577 238 ft 14 kts 259°
2026-05-06 17:53 41.23602 -8.67669 233 ft 0 kts 259°
2026-05-06 17:53 41.23600 -8.67681 232 ft 4 kts 259°
2026-05-06 17:53 41.23591 -8.67754 229 ft 10 kts 269°
2026-05-06 17:54 41.23629 -8.67817 228 ft 12 kts 345°
2026-05-06 17:54 41.23812 -8.67865 223 ft 54 kts 348°
2026-05-06 17:54 41.24388 -8.68017 209 ft 111 kts 349°
2026-05-06 17:54 41.25284 -8.68245 264 ft 145 kts 348°
2026-05-06 17:55 41.26284 -8.68472 774 ft 145 kts 346°
2026-05-06 17:55 41.27271 -8.68727 1347 ft 145 kts 345°
2026-05-06 17:55 41.28263 -8.68999 1891 ft 148 kts 347°
2026-05-06 17:55 41.29327 -8.69307 2230 ft 166 kts 347°
2026-05-06 17:56 41.30524 -8.69640 2527 ft 188 kts 348°
2026-05-06 17:56 41.31881 -8.70005 2909 ft 211 kts 348°
2026-05-06 17:56 41.33402 -8.70397 3425 ft 237 kts 348°
2026-05-06 17:56 41.35091 -8.70851 4160 ft 253 kts 343°
2026-05-06 17:57 41.36627 -8.72019 5083 ft 263 kts 315°
2026-05-06 17:57 41.37603 -8.74092 6001 ft 270 kts 287°
2026-05-06 17:57 41.37750 -8.76546 6937 ft 274 kts 259°
2026-05-06 17:57 41.37027 -8.78875 7895 ft 276 kts 232°
2026-05-06 17:58 41.35582 -8.80524 8866 ft 277 kts 205°
2026-05-06 17:58 41.33727 -8.81124 9863 ft 277 kts 178°
2026-05-06 17:58 41.31829 -8.80585 10560 ft 290 kts 158°
2026-05-06 17:58 41.29900 -8.79469 10870 ft 315 kts 157°
2026-05-06 17:59 41.27774 -8.78424 11305 ft 333 kts 163°
2026-05-06 17:59 41.25519 -8.77633 12093 ft 339 kts 168°
2026-05-06 17:59 41.23185 -8.77035 12888 ft 345 kts 171°
2026-05-06 17:59 41.20795 -8.76518 13664 ft 351 kts 172°
2026-05-06 18:00 41.18363 -8.76047 14420 ft 355 kts 173°
2026-05-06 18:00 41.15916 -8.75578 15223 ft 357 kts 173°
2026-05-06 18:00 41.13442 -8.75098 16002 ft 360 kts 173°
2026-05-06 18:00 41.10952 -8.74610 16758 ft 364 kts 173°
2026-05-06 18:01 41.08437 -8.74114 17517 ft 367 kts 173°
2026-05-06 18:01 41.05904 -8.73622 18272 ft 370 kts 173°
2026-05-06 18:01 41.03348 -8.73118 18919 ft 373 kts 173°
2026-05-06 18:01 41.00773 -8.72608 19587 ft 375 kts 173°
2026-05-06 18:02 40.98183 -8.72095 20249 ft 377 kts 173°
2026-05-06 18:02 40.95578 -8.71581 20891 ft 380 kts 173°
2026-05-06 18:02 40.92954 -8.71063 21544 ft 383 kts 173°
2026-05-06 18:02 40.90304 -8.70542 22149 ft 387 kts 173°
2026-05-06 18:03 40.87632 -8.70018 22644 ft 390 kts 173°
2026-05-06 18:03 40.84941 -8.69492 22848 ft 391 kts 173°
2026-05-06 18:03 40.82242 -8.68965 22946 ft 392 kts 173°
2026-05-06 18:03 40.79542 -8.68436 22947 ft 392 kts 173°
2026-05-06 18:04 40.76845 -8.67907 22949 ft 392 kts 173°
2026-05-06 18:04 40.74146 -8.67379 22948 ft 392 kts 173°
2026-05-06 18:04 40.71446 -8.66852 22946 ft 393 kts 173°
2026-05-06 18:04 40.68746 -8.66325 22948 ft 392 kts 173°
2026-05-06 18:05 40.66046 -8.65798 22946 ft 392 kts 173°
2026-05-06 18:05 40.63350 -8.65271 22949 ft 392 kts 173°
2026-05-06 18:05 40.60651 -8.64744 22944 ft 392 kts 173°
2026-05-06 18:05 40.57956 -8.64217 22948 ft 392 kts 173°
2026-05-06 18:06 40.55259 -8.63691 22950 ft 392 kts 173°
2026-05-06 18:06 40.52549 -8.63267 22945 ft 391 kts 181°
2026-05-06 18:06 40.49873 -8.63689 22949 ft 387 kts 197°
2026-05-06 18:06 40.47329 -8.64713 22950 ft 388 kts 199°
2026-05-06 18:07 40.44767 -8.65813 22945 ft 387 kts 199°
2026-05-06 18:07 40.42209 -8.66906 22946 ft 387 kts 199°
2026-05-06 18:07 40.39644 -8.67979 22949 ft 387 kts 199°
2026-05-06 18:07 40.37075 -8.69037 22949 ft 387 kts 198°
2026-05-06 18:08 40.34507 -8.70085 22947 ft 387 kts 198°
2026-05-06 18:08 40.31933 -8.71129 22950 ft 387 kts 198°
2026-05-06 18:08 40.29365 -8.72169 22953 ft 387 kts 198°
2026-05-06 18:08 40.26787 -8.73212 22951 ft 387 kts 198°
2026-05-06 18:09 40.24215 -8.74253 22950 ft 387 kts 198°
2026-05-06 18:09 40.21641 -8.75295 22953 ft 387 kts 198°
2026-05-06 18:09 40.19064 -8.76338 22954 ft 387 kts 198°
2026-05-06 18:09 40.16491 -8.77379 22954 ft 387 kts 198°
2026-05-06 18:10 40.13916 -8.78417 22954 ft 387 kts 198°
2026-05-06 18:10 40.11341 -8.79455 22953 ft 387 kts 198°
2026-05-06 18:10 40.08767 -8.80491 22952 ft 387 kts 198°
2026-05-06 18:10 40.06192 -8.81527 22958 ft 388 kts 198°
2026-05-06 18:11 40.03614 -8.82563 22958 ft 387 kts 198°
2026-05-06 18:11 40.01041 -8.83597 22957 ft 387 kts 198°
2026-05-06 18:11 39.98467 -8.84630 22956 ft 387 kts 198°
2026-05-06 18:11 39.95895 -8.85660 22958 ft 387 kts 198°
2026-05-06 18:12 39.93322 -8.86690 22957 ft 387 kts 198°
2026-05-06 18:12 39.90746 -8.87721 22960 ft 387 kts 198°
2026-05-06 18:12 39.88210 -8.88736 22962 ft 387 kts 198°
2026-05-06 18:12 39.85635 -8.89765 22959 ft 387 kts 198°
2026-05-06 18:13 39.83064 -8.90793 22955 ft 387 kts 198°
2026-05-06 18:13 39.80494 -8.91818 22956 ft 387 kts 198°
2026-05-06 18:13 39.77918 -8.92846 22954 ft 387 kts 198°
2026-05-06 18:13 39.75352 -8.93868 22954 ft 387 kts 198°
2026-05-06 18:14 39.72769 -8.94896 22954 ft 387 kts 198°
2026-05-06 18:14 39.70193 -8.95920 22955 ft 387 kts 198°
2026-05-06 18:14 39.67621 -8.96942 22956 ft 387 kts 198°
2026-05-06 18:14 39.65047 -8.97966 22958 ft 387 kts 198°
2026-05-06 18:15 39.62472 -8.98989 22944 ft 387 kts 198°
2026-05-06 18:15 39.59895 -9.00011 22720 ft 387 kts 198°
2026-05-06 18:15 39.57329 -9.01028 22449 ft 384 kts 198°
2026-05-06 18:15 39.54781 -9.02037 22176 ft 382 kts 198°
2026-05-06 18:16 39.52243 -9.03043 21918 ft 381 kts 198°
2026-05-06 18:16 39.49714 -9.04044 21647 ft 380 kts 198°
2026-05-06 18:16 39.47192 -9.05039 21383 ft 378 kts 198°
2026-05-06 18:16 39.44678 -9.06031 21123 ft 377 kts 198°
2026-05-06 18:17 39.42178 -9.07017 20867 ft 375 kts 198°
2026-05-06 18:17 39.39682 -9.08002 20607 ft 374 kts 198°
2026-05-06 18:17 39.37195 -9.08981 20348 ft 373 kts 198°
2026-05-06 18:17 39.34721 -9.09955 20101 ft 371 kts 198°
2026-05-06 18:18 39.32254 -9.10928 19857 ft 370 kts 198°
2026-05-06 18:18 39.29792 -9.11897 19607 ft 369 kts 198°
2026-05-06 18:18 39.27340 -9.12860 19362 ft 368 kts 198°
2026-05-06 18:18 39.24896 -9.13818 19119 ft 366 kts 198°
2026-05-06 18:19 39.22463 -9.14773 18872 ft 365 kts 198°
2026-05-06 18:19 39.20066 -9.15713 18638 ft 364 kts 198°
2026-05-06 18:19 39.17651 -9.16659 18401 ft 362 kts 198°
2026-05-06 18:19 39.15242 -9.17602 18146 ft 361 kts 198°
2026-05-06 18:20 39.12842 -9.18541 17882 ft 360 kts 198°
2026-05-06 18:20 39.10462 -9.19471 17607 ft 359 kts 198°
2026-05-06 18:20 39.08077 -9.20403 17338 ft 358 kts 198°
2026-05-06 18:20 39.05699 -9.21330 17066 ft 356 kts 198°
2026-05-06 18:21 39.03332 -9.22254 16804 ft 355 kts 198°
2026-05-06 18:21 39.00970 -9.23175 16556 ft 354 kts 198°
2026-05-06 18:21 38.98616 -9.24090 16287 ft 353 kts 198°
2026-05-06 18:21 38.96269 -9.25003 15983 ft 352 kts 198°
2026-05-06 18:22 38.93923 -9.25916 15417 ft 353 kts 198°
2026-05-06 18:22 38.91558 -9.26836 14605 ft 358 kts 198°
2026-05-06 18:22 38.89160 -9.27768 13748 ft 360 kts 198°
2026-05-06 18:22 38.86773 -9.28691 12814 ft 357 kts 198°
2026-05-06 18:23 38.84408 -9.29603 11869 ft 354 kts 198°
2026-05-06 18:23 38.82048 -9.30522 10870 ft 355 kts 198°
2026-05-06 18:23 38.79686 -9.31446 9897 ft 355 kts 198°
2026-05-06 18:23 38.77324 -9.32362 8883 ft 354 kts 197°
2026-05-06 18:24 38.74982 -9.33274 7984 ft 349 kts 197°
2026-05-06 18:24 38.72669 -9.34172 7104 ft 345 kts 197°
2026-05-06 18:24 38.70381 -9.35052 6246 ft 342 kts 197°
2026-05-06 18:24 38.68120 -9.35919 5570 ft 333 kts 197°
2026-05-06 18:25 38.65972 -9.36741 5317 ft 312 kts 198°
2026-05-06 18:25 38.63960 -9.37513 5108 ft 292 kts 198°
2026-05-06 18:25 38.62073 -9.38238 4932 ft 274 kts 198°
2026-05-06 18:25 38.60306 -9.38917 4772 ft 257 kts 198°
2026-05-06 18:26 38.58626 -9.39472 4603 ft 243 kts 185°
2026-05-06 18:26 38.56958 -9.39100 4475 ft 252 kts 154°
2026-05-06 18:26 38.55630 -9.37709 4317 ft 245 kts 123°
2026-05-06 18:26 38.54885 -9.35764 4158 ft 244 kts 98°
2026-05-06 18:27 38.54957 -9.33647 4031 ft 238 kts 66°
2026-05-06 18:27 38.55800 -9.31910 4014 ft 228 kts 41°
2026-05-06 18:27 38.56926 -9.30466 4000 ft 228 kts 41°
2026-05-06 18:27 38.58040 -9.29024 3999 ft 229 kts 41°
2026-05-06 18:28 38.58774 -9.28066 3956 ft 227 kts 42°
2026-05-06 18:28 38.59853 -9.26644 3872 ft 219 kts 42°
2026-05-06 18:28 38.60899 -9.25258 3659 ft 216 kts 41°
2026-05-06 18:28 38.61946 -9.23880 3400 ft 215 kts 41°
2026-05-06 18:29 38.63313 -9.22080 3096 ft 210 kts 37°
2026-05-06 18:29 38.64088 -9.21311 3034 ft 211 kts 28°
2026-05-06 18:29 38.65379 -9.20413 2782 ft 211 kts 21°
2026-05-06 18:29 38.66721 -9.19677 2491 ft 208 kts 18°
2026-05-06 18:30 38.68038 -9.18977 2201 ft 201 kts 19°
2026-05-06 18:30 38.69271 -9.18328 1925 ft 182 kts 18°
2026-05-06 18:30 38.70386 -9.17728 1752 ft 165 kts 18°
2026-05-06 18:30 38.71384 -9.17196 1523 ft 145 kts 19°
2026-05-06 18:31 38.72247 -9.16728 1325 ft 130 kts 17°
2026-05-06 18:31 38.73056 -9.16299 1143 ft 120 kts 14°
2026-05-06 18:31 38.73749 -9.15934 1000 ft 133 kts 16°
2026-05-06 18:31 38.74561 -9.15494 824 ft 124 kts 15°
2026-05-06 18:32 38.75386 -9.15057 668 ft 130 kts 15°
2026-05-06 18:32 38.76232 -9.14606 435 ft 129 kts 19°
2026-05-06 18:32 38.77055 -9.14166 356 ft 126 kts 21°
2026-05-06 18:32 38.77707 -9.13821 363 ft 73 kts 23°
2026-05-06 18:33 38.78021 -9.13653 366 ft 39 kts 22°
2026-05-06 18:33 38.78209 -9.13549 366 ft 21 kts 29°
2026-05-06 18:33 38.78193 -9.13463 364 ft 13 kts 156°
2026-05-06 18:33 38.78096 -9.13435 362 ft 16 kts 170°
2026-05-06 18:34 38.77955 -9.13399 353 ft 26 kts 168°
2026-05-06 18:34 38.77757 -9.13347 345 ft 24 kts 169°
2026-05-06 18:34 38.77614 -9.13319 336 ft 22 kts 179°
2026-05-06 18:34 38.77452 -9.13285 337 ft 25 kts 167°
2026-05-06 18:35 38.77280 -9.13247 338 ft 23 kts 168°
2026-05-06 18:35 38.77110 -9.13201 338 ft 27 kts 168°
2026-05-06 18:35 38.76935 -9.13154 334 ft 23 kts 168°
2026-05-06 18:35 38.76882 -9.13104 337 ft 4 kts 88°
2026-05-06 18:36 38.76890 -9.13061 335 ft 0 kts 77°
2026-05-06 18:36 38.76891 -9.13051 334 ft 0 kts 78°